Back to catalog

STARLINK-4490

AliveCommunicationsVLEO
NORAD 53409·PAYLOAD·🇺🇸 United States

Launched Aug 10, 2022 from Cape Canaveral Space Force Station

Loading…

Next Passes (next 24 hours)

TLE

FreshSource: CelesTrak SupGP

Epoch: Sep 14, 2026, 13:33 UTC

1 53409C 22097X   26257.56506944  .00026781  00000+0  79150-3 0  2577
2 53409  53.1587 321.8082 0001388  79.6523 302.9154 15.34367130    16

Track STARLINK-4490 in real time with AllMySat

Download on the App Store